This demonstration page uses our WeatherBlox Daily Observations layout. Learn more.

39.92423, -83.80882

Hourly Observations for July 18, 2018

Temp ( °F °C ) Dew Point ( °F °C ) Humidity (%) Winds ( mph kmh ) Pressure ( in mb ) Visibility ( mi km ) Precip ( " mm )
12:56 am 00:56 Clear 66 18.9 61 16.1 84 84 NNW 6 9 30.04 1017 10 16.0934 0 0
1:56 am 01:56 Clear 64 17.8 60 15.6 87 87 NW 3 6 30.04 1017 10 16.0934 0 0
2:56 am 02:56 Clear 63 17.2 60 15.6 90 90 NNW 6 9 30.04 1017 10 16.0934 0 0
3:56 am 03:56 Clear 62 16.7 60 15.6 93 93 N 3 6 30.04 1017 10 16.0934 0 0
4:56 am 04:56 Clear 61 16.1 60 15.6 97 97 Calm 30.04 1017 10 16.0934 0 0
5:56 am 05:56 Clear 59 15 59 15 100 100 Calm 30.05 1018 10 16.0934 0 0
6:56 am 06:56 Partly Cloudy with Mist and Fog 58 14.4 58 14.4 100 100 Calm 30.06 1018 5 8.0467 0 0
7:56 am 07:56 Sunny 63 17.2 61 16.1 93 93 Calm 30.08 1019 10 16.0934 0 0
8:56 am 08:56 Sunny 69 20.6 61 16.1 76 76 E 6 9 30.08 1019 10 16.0934 0 0
9:56 am 09:56 Sunny 73 22.8 63 17.2 71 71 E 7 11 30.08 1019 10 16.0934 0 0
10:56 am 10:56 Sunny 75 23.9 63 17.2 66 66 E 6 9 30.08 1019 10 16.0934 0 0
11:56 am 11:56 Sunny 77 25 61 16.1 58 58 E 9 15 30.08 1019 10 16.0934 0 0
12:56 pm 12:56 Sunny 77 25 58 14.4 52 52 ENE 8 13 30.08 1019 10 16.0934 0 0
1:56 pm 13:56 Sunny 80 26.7 55 12.8 42 42 Calm 30.07 1018 10 16.0934 0 0
2:56 pm 14:56 Sunny 79 26.1 55 12.8 44 44 VRB 5 7 30.06 1018 10 16.0934 0 0
3:56 pm 15:56 Sunny 79 26.1 55 12.8 44 44 VRB 5 7 30.05 1018 10 16.0934 0 0
4:56 pm 16:56 Sunny 78 25.6 56 13.3 47 47 ESE 3 6 30.04 1017 10 16.0934 0 0
5:56 pm 17:56 Sunny 79 26.1 57 13.9 47 47 ENE 7 11 30.04 1017 10 16.0934 0 0
6:56 pm 18:56 Sunny 79 26.1 56 13.3 45 45 E 8 13 30.02 1017 10 16.0934 0 0
7:56 pm 19:56 Sunny 77 25 59 15 54 54 E 3 6 30.02 1017 10 16.0934 0 0
8:56 pm 20:56 Sunny 72 22.2 58 14.4 61 61 E 3 6 30.03 1017 10 16.0934 0 0
9:56 pm 21:56 Clear 67 19.4 59 15 76 76 ENE 7 11 30.04 1017 10 16.0934 0 0
10:56 pm 22:56 Clear 65 18.3 58 14.4 78 78 ENE 6 9 30.05 1018 10 16.0934 0 0
11:56 pm 23:56 Clear 63 17.2 58 14.4 84 84 ESE 3 6 30.05 1018 10 16.0934 0 0

Powered by AerisWeather